Regional Weather Roundup
Issued by NWS

Home | Current Version | Previous Version | Graphics & Text | Print | Product List | Glossary On
Versions: 1 2 3 4 5 6 7 8 9 10 11 12 13 14 15 16 17 18 19 20 21 22 23 24 25 26 27 28 29 30 31 32 33 34 35 36 37 38 39 40 41 42 43 44 45 46 47 48 49 50
000
ASUS43 KFSD 031010
RWRSD

WEATHER ROUNDUP FOR SOUTH DAKOTA
NATIONAL WEATHER SERVICE SIOUX FALLS SD
500 AM CDT TUE MAY 03 2016

NOTE: "FAIR" INDICATES FEW OR NO CLOUDS BELOW 12,000 FEET WITH NO
SIGNIFICANT WEATHER AND/OR OBSTRUCTIONS TO VISIBILITY.


SDZ001>005-009-010-012>017-031100-
NORTHWEST AND NORTH CENTRAL SOUTH DAKOTA

CITY           SKY/WX    TMP DP  RH WIND       PRES   REMARKS
BUFFALO          N/A     41  32  70 W6        30.00R
FAITH            N/A     42  37  82 W7        30.04S
MOBRIDGE       CLOUDY    38  37  97 CALM      29.99S FOG
$$

SDZ012>016-024>037-041>051-057-063-072>074-031100-
SOUTHWEST AND SOUTH CENTRAL SOUTH DAKOTA

CITY           SKY/WX    TMP DP  RH WIND       PRES   REMARKS
RAPID CTY ARPT CLEAR     42  34  73 NW10      30.07R
PIERRE         CLOUDY    40  38  93 SW5       30.03R
CUSTER         CLEAR     35  27  72 NW3       30.11S
ELLSWORTH AFB  CLEAR     35  34  94 NW7       30.06S WCI  29
PHILIP         MOCLDY    33  33 100 W7        30.06S WCI  27
PINE RIDGE     PTCLDY    31  29  92 CALM      30.08S
WINNER         FAIR      40  35  83 W3        30.05S
$$

SDZ004>011-016>023-039-040-031100-
NORTHEAST SOUTH DAKOTA

CITY           SKY/WX    TMP DP  RH WIND       PRES   REMARKS
ABERDEEN       CLOUDY    35  33  92 S6        29.99F
WATERTOWN      PTCLDY    41  37  86 S3        30.00S
BROOKINGS      CLEAR     40  37  89 CALM      30.01S
SISSETON         N/A     41  35  79 NW5       29.97S
$$

SDZ017-020-022-023-036>040-048>070-031100-
SOUTHEAST SOUTH DAKOTA

CITY           SKY/WX    TMP DP  RH WIND       PRES   REMARKS
SIOUX FALLS    CLEAR     37  34  89 CALM      30.02S
HURON          CLEAR     39  38  96 CALM      30.02S
CHAMBERLAIN    CLEAR     42  41  97 W6        30.04S
MITCHELL       CLEAR     44  43  96 W5        30.03S
YANKTON        CLEAR     41  37  87 W5        30.02F
$$

ABBREVIATIONS USED IN REMARKS
   TC - TEMPERATURE IN CELSIUS
  WCI - WIND CHILL INDEX
   HX - HEAT INDEX
  VSB - VISIBILITY




USA.gov is the U.S. government's official web portal to all federal, state and local government web resources and services.